Location: Port Stanley
(42.6641°N, 81.2156°W)
Time: 17:26:56
(UTC-04:00)

ISS - Pass Details

Date: 01 July 2019
Orbit: 409 x 418 km, 51.6° (Epoch: 17 July)

Event Time Altitude Azimuth Distance (km) Brightness Sun altitude
Exits shadow 04:22:07 18° 182° (S) 1,079 -2.1 -13.0°
Maximum altitude 04:23:47 27° 137° (SE) 812 -2.4 -12.8°
Drops below altitude 10° 04:26:39 10° 76° (ENE) 1,474 -0.1 -12.5°
Sets 04:28:55 0° 64° (ENE) 2,338 1.4 -12.2°
